Location: Star Hoppers Observatory
(42.7905°N, 83.6127°W)
Time: 09:39:13
(UTC-04:00)

Amateur Radio Satellites - All Passes

Search period start: 01 September 2014 09:09
Search period end: 02 September 2014 09:09
Location: Star Hoppers Observatory, 42.7905°N, 83.6127°W

Satellite Date Start Highest point End Downlink Frequencies (MHz)
Time Altitude Azimuth
JAS-2 01 Sep 09:09:15 09:13:04 21° 297° (WNW) 09:17:03 435.800 - 435.900 CW/SSB, 435.910 FM
RS-15 01 Sep 10:12:37 10:23:12 50° 317° (NW) 10:33:46 29.354 - 29.394 USB, Beacon 29.352 USB
HO-68 01 Sep 10:19:22 10:26:18 50° 100° (E) 10:33:11 435.675 MHz FM
ISS 01 Sep 10:35:41 10:38:45 36° 139° (SE) 10:41:50 145.800 FM
KITSAT 1 01 Sep 10:54:07 11:00:24 26° 255° (WSW) 11:06:39 435.175 FM
UKube-1 01 Sep 11:13:23 11:17:45 89° 103° (ESE) 11:22:06 145.840 MHz, 145.915 MHz
Oscar 11 01 Sep 11:17:44 11:22:06 68° 101° (ESE) 11:26:26 145.825 FM, Beacon 2401.500 USB
AO-40 01 Sep 11:25:16 11:45:14 14° 217° (SW) 11:52:49 Beacon 2401.320
SO-50 01 Sep 11:27:37 11:31:02 19° 39° (NE) 11:34:28 436.795 FM
FUNcube-1 01 Sep 11:47:53 11:52:22 58° 100° (E) 11:56:54 145.950 - 145.970 MHz USB
HO-68 01 Sep 12:07:29 12:13:45 35° 299° (WNW) 12:20:01 435.675 MHz FM
ISS 01 Sep 12:12:23 12:15:29 35° 336° (NNW) 12:18:36 145.800 FM
RS-15 01 Sep 12:30:41 12:39:03 24° 349° (NNW) 12:47:30 29.354 - 29.394 USB, Beacon 29.352 USB
Oscar 19 01 Sep 12:51:23 12:54:20 16° 59° (ENE) 12:57:18 437.125 CW, 437.150 USB
Oscar 11 01 Sep 12:55:45 12:57:44 13° 298° (WNW) 12:59:42 145.825 FM, Beacon 2401.500 USB
SO-50 01 Sep 13:07:20 13:12:08 77° 238° (WSW) 13:16:58 436.795 FM
MaSat-1 01 Sep 13:14:16 13:18:45 37° 108° (ESE) 13:23:29 437.345 MHz
UOSAT-12 01 Sep 13:17:51 13:21:14 19° 39° (NE) 13:24:34 437.025 FM, 437.400 FM
Oscar 16 01 Sep 13:24:42 13:29:11 31° 66° (ENE) 13:33:42 437.025 USB, Beacon 2401.1428
FUNcube-1 01 Sep 13:25:33 13:28:19 16° 297° (WNW) 13:31:06 145.950 - 145.970 MHz USB
ITAMSAT 1 01 Sep 13:27:50 13:30:42 15° 59° (ENE) 13:33:35 435.822 SSB
Uribyol 2 01 Sep 13:36:32 13:40:04 19° 61° (ENE) 13:43:37 436.500 FM
ISS 01 Sep 13:50:32 13:52:54 18° 356° (N) 13:55:17 145.800 FM
JAS-1B 01 Sep 13:55:33 14:04:18 42° 64° (ENE) 14:12:07 435.800 - 435.900 CW/SSB
AO-27 01 Sep 13:55:39 13:59:56 27° 65° (ENE) 14:04:12 436.795 MHz FM
Oscar 19 01 Sep 14:27:53 14:33:02 75° 257° (WSW) 14:38:15 437.125 CW, 437.150 USB
Gurwin Techsat 1B 01 Sep 14:33:43 14:38:07 27° 65° (ENE) 14:42:32 435.225 FM
AO-Echo 01 Sep 14:41:10 14:46:09 72° 74° (ENE) 14:51:01 ?
RS-15 01 Sep 14:47:05 14:56:18 29° 24° (NNE) 15:05:41 29.354 - 29.394 USB, Beacon 29.352 USB
MaSat-1 01 Sep 14:51:20 14:55:49 32° 306° (NW) 15:00:27 437.345 MHz
UOSAT-12 01 Sep 14:57:11 15:01:56 76° 238° (WSW) 15:06:34 437.025 FM, 437.400 FM
Oscar 16 01 Sep 15:03:47 15:08:27 34° 263° (W) 15:13:10 437.025 USB, Beacon 2401.1428
ITAMSAT 1 01 Sep 15:04:24 15:09:33 77° 257° (WSW) 15:14:45 435.822 SSB
Uribyol 2 01 Sep 15:14:01 15:19:05 59° 259° (W) 15:24:12 436.500 FM
TMSAT-1 01 Sep 15:23:09 15:28:16 54° 71° (ENE) 15:33:26 436.925 FM
ISS 01 Sep 15:27:40 15:30:28 24° 16° (NNE) 15:33:16 145.800 FM
AO-27 01 Sep 15:34:24 15:39:14 40° 262° (W) 15:44:07 436.795 MHz FM
Uosat F 01 Sep 15:35:51 15:38:35 15° 59° (ENE) 15:41:19 435.120 FM
AO-7 01 Sep 15:40:37 15:47:55 36° 58° (ENE) 15:55:11 29.400 - 29.500 MHz
JAS-1B 01 Sep 15:45:02 15:54:32 55° 260° (W) 16:03:05 435.800 - 435.900 CW/SSB
PCSat 01 Sep 16:08:06 16:11:03 15° 104° (ESE) 16:14:02 145.825 MHz
Gurwin Techsat 1B 01 Sep 16:12:54 16:17:53 41° 262° (W) 16:22:54 435.225 FM
AO-Echo 01 Sep 16:23:06 16:25:24 13° 270° (W) 16:27:40 ?
RS-15 01 Sep 16:59:51 17:10:56 73° 53° (NE) 17:22:26 29.354 - 29.394 USB, Beacon 29.352 USB
OPAL 01 Sep 17:02:21 17:05:32 16° 93° (E) 17:08:43 ?
ISS 01 Sep 17:04:10 17:07:30 80° 215° (SW) 17:10:50 145.800 FM
TMSAT-1 01 Sep 17:04:44 17:08:31 20° 268° (W) 17:12:20 436.925 FM
Uosat F 01 Sep 17:11:45 17:16:45 75° 257° (WSW) 17:21:47 435.120 FM
Sapphire 01 Sep 17:19:14 17:24:31 58° 115° (ESE) 17:29:50 437.095 MHz 1200 baud AX-25 AFSK
AO-7 01 Sep 17:32:09 17:40:19 58° 257° (WSW) 17:48:31 29.400 - 29.500 MHz
JAS-2 01 Sep 17:37:18 17:42:02 26° 65° (ENE) 17:46:26 435.800 - 435.900 CW/SSB, 435.910 FM
PCSat 01 Sep 17:48:22 17:53:46 78° 301° (WNW) 17:59:14 145.825 MHz
Hamsat 01 Sep 18:37:32 18:41:51 80° 76° (ENE) 18:46:14 145.90 MHz
OPAL 01 Sep 18:39:40 18:44:52 66° 289° (WNW) 18:50:01 ?
Sapphire 01 Sep 19:03:54 19:08:19 25° 315° (NW) 19:12:45 437.095 MHz 1200 baud AX-25 AFSK
RS-15 01 Sep 19:13:03 19:22:26 33° 254° (WSW) 19:32:09 29.354 - 29.394 USB, Beacon 29.352 USB
JAS-2 01 Sep 19:21:07 19:26:57 47° 260° (W) 19:32:14 435.800 - 435.900 CW/SSB, 435.910 FM
PCSat 01 Sep 19:34:51 19:38:07 16° 322° (NW) 19:41:23 145.825 MHz
SO-67 01 Sep 19:41:45 19:45:09 57° 75° (ENE) 19:48:34 435.3500 MHz FM
OPAL 01 Sep 20:22:26 20:22:45 10° 308° (NW) 20:23:04 ?
STRAND 1 01 Sep 20:26:45 20:31:52 75° 103° (ESE) 20:36:59 ?
HO-68 01 Sep 20:48:50 20:55:23 41° 63° (ENE) 21:01:57 435.675 MHz FM
MaSat-1 01 Sep 21:32:21 21:34:27 13° 41° (NE) 21:36:26 437.345 MHz
STRAND 1 01 Sep 22:07:35 22:10:26 15° 301° (WNW) 22:13:18 ?
UKube-1 01 Sep 22:09:28 22:13:49 86° 75° (ENE) 22:18:11 145.840 MHz, 145.915 MHz
Oscar 11 01 Sep 22:13:21 22:17:37 58° 73° (ENE) 22:21:54 145.825 FM, Beacon 2401.500 USB
HO-68 01 Sep 22:36:26 22:43:03 41° 262° (W) 22:49:44 435.675 MHz FM
Saudisat 1A 01 Sep 22:44:05 22:48:17 46° 118° (ESE) 22:52:31 436.775 MHz
FUNcube-1 01 Sep 22:45:16 22:49:18 48° 72° (ENE) 22:53:27 145.950 - 145.970 MHz USB
AO-40 01 Sep 22:56:11 04:54:41 39° 169° (SSE) 06:45:17 Beacon 2401.320
MaSat-1 01 Sep 23:07:44 23:12:20 87° 63° (ENE) 23:16:16 437.345 MHz
KITSAT 1 01 Sep 23:26:44 23:34:18 46° 111° (ESE) 23:41:52 435.175 FM
Oscar 11 01 Sep 23:52:05 23:54:10 13° 270° (W) 23:56:16 145.825 FM, Beacon 2401.500 USB
FUNcube-1 02 Sep 00:23:38 00:26:01 15° 269° (W) 00:28:27 145.950 - 145.970 MHz USB
Saudisat 1A 02 Sep 00:24:29 00:28:05 24° 317° (NW) 00:31:41 436.775 MHz
Sapphire 02 Sep 00:24:51 00:27:03 12° 34° (NE) 00:29:15 437.095 MHz 1200 baud AX-25 AFSK
PCSat 02 Sep 00:53:06 00:56:56 19° 41° (NE) 01:00:46 145.825 MHz
KITSAT 1 02 Sep 01:21:57 01:29:41 47° 312° (NW) 01:37:27 435.175 FM
Sapphire 02 Sep 02:06:23 02:11:44 55° 55° (NE) 02:17:03 437.095 MHz 1200 baud AX-25 AFSK
PCSat 02 Sep 02:35:35 02:41:03 83° 241° (WSW) 02:46:27 145.825 MHz
Oscar 19 02 Sep 02:38:56 02:43:45 36° 97° (E) 02:48:30 437.125 CW, 437.150 USB
AO-Echo 02 Sep 02:48:24 02:51:51 20° 93° (E) 02:55:20 ?
Oscar 16 02 Sep 03:13:59 03:19:14 80° 103° (ESE) 03:24:25 437.025 USB, Beacon 2401.1428
ITAMSAT 1 02 Sep 03:16:42 03:21:27 36° 97° (E) 03:26:12 435.822 SSB
KITSAT 1 02 Sep 03:22:27 03:27:26 17° 338° (NNW) 03:32:25 435.175 FM
SO-50 02 Sep 03:23:42 03:27:30 28° 114° (ESE) 03:31:23 436.795 FM
Uribyol 2 02 Sep 03:25:53 03:30:53 46° 99° (E) 03:35:52 436.500 FM
JAS-1B 02 Sep 03:31:44 03:38:04 45° 97° (E) 03:43:37 435.800 - 435.900 CW/SSB
TMSAT-1 02 Sep 03:39:00 03:42:51 20° 92° (E) 03:46:41 436.925 FM
AO-27 02 Sep 03:46:08 03:51:19 68° 102° (ESE) 03:56:29 436.795 MHz FM
Sapphire 02 Sep 03:50:39 03:54:45 22° 253° (WSW) 03:58:49 437.095 MHz 1200 baud AX-25 AFSK
OPAL 02 Sep 04:17:26 04:21:54 32° 64° (ENE) 04:26:26 ?
Oscar 19 02 Sep 04:18:30 04:22:57 29° 294° (WNW) 04:27:22 437.125 CW, 437.150 USB
PCSat 02 Sep 04:22:11 04:23:33 11° 259° (WSW) 04:24:56 145.825 MHz
AO-Echo 02 Sep 04:26:24 04:30:50 43° 290° (WNW) 04:35:17 ?
Gurwin Techsat 1B 02 Sep 04:27:50 04:33:10 76° 103° (ESE) 04:38:28 435.225 FM
Oscar 16 02 Sep 04:55:06 04:57:54 15° 301° (WNW) 05:00:42 437.025 USB, Beacon 2401.1428
ITAMSAT 1 02 Sep 04:56:23 05:00:50 30° 294° (WNW) 05:05:18 435.822 SSB
SO-50 02 Sep 05:03:47 05:07:56 36° 312° (NW) 05:12:12 436.795 FM
Uribyol 2 02 Sep 05:05:59 05:10:04 24° 296° (WNW) 05:14:09 436.500 FM
UOSAT-12 02 Sep 05:09:37 05:13:29 27° 113° (ESE) 05:17:26 437.025 FM, 437.400 FM
TMSAT-1 02 Sep 05:17:56 05:23:05 53° 289° (WNW) 05:28:13 436.925 FM
Uosat F 02 Sep 05:18:59 05:23:26 31° 96° (E) 05:27:51 435.120 FM
JAS-1B 02 Sep 05:22:48 05:28:26 29° 300° (WNW) 05:33:27 435.800 - 435.900 CW/SSB
KITSAT 1 02 Sep 05:23:12 05:26:55 14° 9° (N) 05:30:38 435.175 FM
AO-27 02 Sep 05:27:01 05:30:17 17° 300° (WNW) 05:33:32 436.795 MHz FM
AO-7 02 Sep 05:32:40 05:40:37 48° 101° (E) 05:48:30 29.400 - 29.500 MHz
OPAL 02 Sep 05:56:09 06:00:43 33° 261° (W) 06:05:21 ?
STRAND 1 02 Sep 06:07:01 06:10:03 16° 60° (ENE) 06:13:04 ?
Gurwin Techsat 1B 02 Sep 06:09:23 06:12:30 16° 301° (WNW) 06:15:37 435.225 FM
Hamsat 02 Sep 06:24:11 06:26:27 14° 90° (E) 06:28:41 145.90 MHz
JAS-2 02 Sep 06:29:15 06:32:54 18° 93° (E) 06:36:44 435.800 - 435.900 CW/SSB, 435.910 FM
UOSAT-12 02 Sep 06:49:07 06:53:28 39° 311° (NW) 06:57:55 437.025 FM, 437.400 FM
Uosat F 02 Sep 06:57:46 07:02:11 32° 293° (WNW) 07:06:34 435.120 FM
Saudisat 1A 02 Sep 07:09:58 07:14:15 47° 51° (NE) 07:18:30 436.775 MHz
KITSAT 1 02 Sep 07:18:41 07:25:35 30° 38° (NE) 07:32:25 435.175 FM
RS-15 02 Sep 07:24:59 07:35:00 41° 109° (ESE) 07:44:50 29.354 - 29.394 USB, Beacon 29.352 USB
AO-7 02 Sep 07:25:41 07:33:17 42° 300° (WNW) 07:40:50 29.400 - 29.500 MHz
STRAND 1 02 Sep 07:43:35 07:48:39 71° 257° (WSW) 07:53:46 ?
Hamsat 02 Sep 07:58:30 08:02:45 54° 287° (WNW) 08:06:57 145.90 MHz
JAS-2 02 Sep 08:13:11 08:18:21 58° 288° (WNW) 08:23:56 435.800 - 435.900 CW/SSB, 435.910 FM
SO-67 02 Sep 08:37:35 08:41:01 62° 101° (E) 08:44:26 435.3500 MHz FM
Saudisat 1A 02 Sep 08:50:19 08:53:30 20° 248° (WSW) 08:56:41 436.775 MHz
